Total_Precipitation_Accumulation
1.21 1.25 1.35 1.57 1.76 1.77 1.70 1.56 1.40 1.38 1.36 1.34 1.38 1.42 1.42 1.37 1.34 1.41 1.37 1.29 1.30 1.31 1.33 1.37 1.40 1.42 1.45 1.37 1.36 1.37 1.35 1.42 1.43 0.92 0.76 0.79 0.97 1.06 1.05 0.99 1.02 1.08 1.11
1.18 1.21 1.28 1.36 1.52 1.73 1.67 1.53 1.37 1.32 1.35 1.35 1.33 1.35 1.36 1.37 1.38 1.40 1.37 1.30 1.29 1.28 1.28 1.27 1.27 1.32 1.39 1.33 1.29 1.25 1.21 1.17 1.23 1.06 0.82 0.80 0.87 0.95 1.06 1.14 1.12 1.10 1.05
1.17 1.20 1.19 1.25 1.33 1.43 1.56 1.50 1.38 1.30 1.28 1.31 1.34 1.34 1.37 1.40 1.39 1.33 1.34 1.29 1.24 1.24 1.26 1.26 1.22 1.29 1.36 1.30 1.29 1.22 1.13 1.07 1.07 1.09 0.92 0.82 0.86 0.90 1.07 1.24 1.25 1.25 1.18
1.08 1.12 1.12 1.11 1.16 1.20 1.30 1.47 1.46 1.37 1.28 1.23 1.22 1.28 1.38 1.54 1.59 1.54 1.55 1.43 1.31 1.24 1.19 1.16 1.18 1.30 1.34 1.35 1.39 1.29 1.22 1.23 1.23 1.26 1.13 0.99 0.99 1.00 1.19 1.43 1.53 1.48 1.42
0.97 1.02 1.07 1.09 1.16 1.19 1.16 1.27 1.44 1.39 1.25 1.17 1.15 1.21 1.31 1.69 2.09 2.09 1.98 1.71 1.41 1.24 1.15 1.13 1.18 1.33 1.39 1.56 1.69 1.57 1.54 1.64 1.60 1.59 1.47 1.35 1.27 1.30 1.38 1.43 1.60 1.62 1.60
0.86 0.95 1.01 1.10 1.24 1.24 1.18 1.22 1.33 1.40 1.33 1.23 1.16 1.16 1.22 1.52 2.22 2.38 2.04 1.58 1.37 1.25 1.19 1.13 1.13 1.26 1.30 1.43 1.62 1.71 1.77 1.90 1.97 1.94 1.83 1.67 1.41 1.33 1.37 1.51 1.61 1.78 1.85
0.82 0.89 0.95 1.01 1.18 1.25 1.22 1.27 1.32 1.38 1.44 1.42 1.27 1.16 1.13 1.32 2.00 2.16 1.89 1.48 1.31 1.24 1.17 1.15 1.14 1.20 1.27 1.24 1.37 1.44 1.48 1.64 1.87 1.98 2.02 1.62 1.40 1.34 1.57 1.77 1.72 1.80 1.77
0.87 0.90 0.95 0.96 1.02 1.16 1.27 1.30 1.31 1.33 1.37 1.43 1.37 1.26 1.16 1.24 1.80 1.98 1.78 1.45 1.31 1.23 1.14 1.12 1.12 1.15 1.25 1.46 1.42 1.38 1.29 1.31 1.51 1.71 1.96 1.78 1.59 1.61 1.95 2.27 2.35 2.22 1.82
0.95 0.96 0.94 0.90 0.93 1.05 1.17 1.28 1.31 1.32 1.28 1.30 1.30 1.29 1.23 1.22 1.58 1.86 1.69 1.38 1.33 1.24 1.12 1.10 1.12 1.13 1.39 1.67 1.57 1.42 1.26 1.17 1.27 1.59 1.89 2.02 2.07 2.18 2.41 2.73 2.89 2.71 2.24
0.93 0.98 0.91 0.81 0.80 0.83 0.96 1.15 1.27 1.28 1.22 1.22 1.24 1.25 1.18 1.12 1.39 1.68 1.67 1.37 1.29 1.23 1.16 1.12 1.25 1.34 1.54 1.68 1.53 1.49 1.57 1.36 1.20 1.23 1.32 1.43 1.51 1.67 2.07 2.36 2.67 2.75 2.39
0.92 0.98 0.90 0.80 0.79 0.81 0.88 1.06 1.19 1.27 1.26 1.20 1.16 1.18 1.14 1.12 1.25 1.44 1.66 1.46 1.30 1.24 1.21 1.17 1.15 1.40 1.51 1.59 1.62 1.57 1.80 1.69 1.41 1.40 1.36 1.30 1.28 1.39 1.60 1.90 2.32 2.66 2.68
0.95 0.93 0.92 0.89 0.85 0.86 0.90 1.03 1.16 1.24 1.31 1.26 1.16 1.13 1.12 1.12 1.22 1.37 1.55 1.59 1.46 1.25 1.14 1.04 1.10 1.34 1.43 1.54 1.54 1.63 1.76 1.68 1.47 1.41 1.33 1.27 1.28 1.33 1.42 1.57 1.90 2.17 2.30
0.92 0.94 0.94 0.94 0.92 0.93 0.96 1.05 1.17 1.24 1.29 1.27 1.18 1.12 1.10 1.05 1.20 1.47 1.41 1.45 1.48 1.27 1.13 1.22 1.30 1.40 1.41 1.34 1.41 1.52 1.50 1.43 1.50 1.50 1.35 1.25 1.26 1.38 1.45 1.49 1.63 1.90 2.06
0.81 0.90 0.91 0.94 0.98 1.02 1.04 1.07 1.15 1.25 1.31 1.22 1.15 1.08 1.03 1.05 1.25 1.42 1.36 1.34 1.41 1.38 1.32 1.37 1.44 1.42 1.31 1.22 1.26 1.28 1.23 1.33 1.48 1.47 1.34 1.20 1.18 1.30 1.46 1.56 1.66 1.80 2.01
0.74 0.86 0.94 0.98 1.03 1.07 1.08 1.13 1.19 1.20 1.34 1.30 1.17 1.09 1.11 1.22 1.42 1.54 1.48 1.40 1.40 1.40 1.49 1.56 1.48 1.39 1.35 1.23 1.12 1.07 1.12 1.28 1.40 1.31 1.28 1.25 1.22 1.26 1.33 1.45 1.67 1.82 1.96
0.75 0.81 0.92 1.00 1.01 1.01 1.00 1.06 1.22 1.24 1.28 1.24 1.18 1.15 1.09 1.27 1.43 1.48 1.55 1.57 1.58 1.65 1.68 1.59 1.37 1.22 1.17 1.13 1.11 1.09 1.04 1.08 1.14 1.21 1.26 1.26 1.26 1.28 1.31 1.32 1.49 1.74 1.89
0.75 0.80 0.88 0.96 0.95 0.91 0.88 0.89 1.00 1.17 1.27 1.25 1.21 1.16 1.16 1.25 1.31 1.39 1.52 1.62 1.65 1.65 1.56 1.34 1.15 1.08 1.05 1.03 1.01 1.01 0.98 0.92 0.96 1.07 1.12 1.17 1.22 1.27 1.30 1.31 1.37 1.53 1.71
0.72 0.82 0.87 0.91 0.93 0.91 0.88 0.87 0.89 0.98 1.10 1.17 1.21 1.17 1.15 1.21 1.26 1.35 1.49 1.61 1.65 1.50 1.29 1.19 1.10 1.02 1.00 1.02 1.03 1.02 0.99 0.95 0.97 1.00 1.03 1.05 1.14 1.25 1.28 1.26 1.29 1.43 1.59
0.74 0.80 0.81 0.86 0.91 0.92 0.91 0.93 0.94 0.97 1.01 1.05 1.11 1.24 1.32 1.31 1.34 1.40 1.42 1.36 1.31 1.22 1.14 1.12 1.08 1.05 1.04 1.04 1.06 1.06 1.05 1.02 0.98 0.99 1.00 1.00 1.03 1.14 1.18 1.14 1.18 1.32 1.49
0.77 0.88 0.86 0.86 0.91 0.94 0.94 0.99 1.04 1.07 1.07 1.05 1.06 1.16 1.35 1.50 1.49 1.46 1.34 1.23 1.20 1.10 1.05 1.09 1.09 1.08 1.08 1.09 1.10 1.10 1.09 1.03 0.98 0.98 0.95 0.95 0.97 1.03 1.07 1.09 1.16 1.23 1.30
0.72 0.80 0.89 0.87 0.86 0.90 0.94 0.99 1.04 1.10 1.11 1.05 0.99 1.09 1.35 1.47 1.38 1.23 1.18 1.19 1.24 1.23 1.16 1.13 1.10 1.10 1.09 1.11 1.12 1.10 1.06 0.99 0.93 0.92 0.92 0.92 0.95 0.99 0.99 1.03 1.08 1.15 1.23
0.73 0.78 0.80 0.82 0.86 0.92 0.97 0.99 1.06 1.11 1.09 1.06 1.04 1.11 1.27 1.21 1.20 1.18 1.15 1.15 1.21 1.26 1.26 1.25 1.20 1.13 1.14 1.18 1.20 1.17 1.07 0.95 0.88 0.88 0.91 0.91 0.91 0.93 0.96 0.98 0.99 1.04 1.13
0.78 0.82 0.84 0.82 0.83 0.96 1.02 1.00 1.03 1.08 1.10 1.10 1.10 1.13 1.16 1.14 1.14 1.17 1.21 1.21 1.25 1.27 1.23 1.22 1.21 1.14 1.08 1.08 1.10 1.16 1.15 0.99 0.89 0.92 1.00 0.98 0.94 0.93 0.96 0.98 0.97 1.00 1.06
0.83 0.86 0.87 0.84 0.84 0.90 0.96 1.00 1.02 1.05 1.08 1.11 1.13 1.14 1.16 1.16 1.15 1.16 1.22 1.28 1.30 1.26 1.21 1.20 1.15 1.10 1.05 1.03 0.99 0.98 0.98 1.00 1.03 1.03 1.03 1.06 1.00 0.94 0.97 1.00 0.97 0.99 1.06
0.85 0.86 0.87 0.86 0.87 0.89 0.94 0.98 1.01 1.02 1.05 1.08 1.11 1.14 1.16 1.17 1.17 1.16 1.18 1.21 1.22 1.19 1.14 1.12 1.11 1.10 1.06 1.00 0.96 0.93 1.00 1.08 1.13 1.21 1.24 1.17 1.06 0.98 1.00 1.00 0.96 0.97 1.03
0.81 0.82 0.85 0.88 0.90 0.91 0.97 1.03 1.02 1.01 1.07 1.08 1.09 1.12 1.14 1.16 1.16 1.12 1.09 1.10 1.12 1.09 1.05 1.03 1.02 1.06 1.05 1.03 1.01 1.05 1.12 1.09 1.10 1.18 1.29 1.28 1.12 0.97 0.98 1.00 0.95 0.97 1.01